STARLINK-2684, 48471

Orbit data source: Space-Track

STARLINK-2684, 48471 is a payload satellite owned by SpaceX/Seattle (US) in LEO that was launched on Sun, 09 May 2021 UTC via an FALCON 9 launch vehicle from the Air Force Eastern Test Range (AFETR). Payload-class satellites include a variety of spacecraft equipped with specific instruments for various scientific and technological missions. These include communications satellites like Starlink; space stations such as the ISS; scientific satellites like the Hubble; Earth observation satellites from companies like Planet Labs, Umbra, and HawkEye 360; GPS; miniature CubeSats for education and research; and military/defense satellites.

Loading next visibility...
Identifier
48471, 2021-040AV
Orbit
LEO
Country
Flag of USUS
Related business
Manufacturer
SpaceX/Seattle
Mission
Operational Commercial Communications
Bus & Motor
STARLINK, Unknown motor
Mass
260 kg wet, ~248 kg dry
Launch date (UTC)
2021-05-09 (5 years ago)
Launch vehicle
FALCON 9
Launch site
Air Force Eastern Test Range (AFETR)
Object type
Payload
Rocket body
Debris
Shape & HBR
Box + 1 Pan, 10.1 m
Radar Cross Section
13.562 m², Large (>1 m²)

Expand to show TLE details & history
Last TLE update: 2 days ago

TLE from 2 days ago
0 STARLINK-2684
1 48471U 21040AV  26171.45389365  .00016521  00000-0  54271-3 0  9998
2 48471  53.1605  72.9674 0000866  91.6649 268.4452 15.31714040282241
Epoch: 2026-06-20T10:53Z
TLE epoch observation values (Epoch: 2026-06-20T10:53:36.411Z)
Latitude
0.00001°
Longitude
0.89741°
Altitude
471.615 km
Speed
7.631 km/s
True Right ascension
04h 51m 52s
True Declination
0° 00' 00"
Sunlit
Object was in daylight at epoch
Visualization orbit readout
Latitude
Unknown
Longitude
Unknown
Altitude
Unknown
Speed
Unknown
Apparent Right ascension
Unknown
Apparent Declination
Unknown
Sunlit
N/A
Visualization observer readout
Local Sidereal Time
21:31:26
Azimuth
Unknown
Elevation
Unknown
Doppler factor
Unknown
Orbital elements
Apogee altitude
471.548 km
Perigee altitude
470.362 km
Semi-major axis
6,849.092 km
Eccentricity
0.00009
Inclination
53.1605°
RAAN
72.9674°
Arg. of periapsis
91.6649°
True anomaly
268.43528°
Mean anomaly
268.4452°
Eccentric anomaly
268.44024°
Mean motion
3.82907 °/min
Orbital period
94.02 mins
BSTAR
0.00054271
Loading maneuver chart data...
Computing Atmospheric mass density...

Documentation

Showing up to 5 results
|